Temp
-13 -13 -13 -13 -13 -13 -13 -13 -13 -13 -13 -13 -13 -13 -13 -13 -13 -13 -13 -13 -13 -13 -14 -16 -17 -19 -20 -20 -20 -20 -20 -20 -20 -20 -20 -19 -19 -19 -19 -18 -18 -17
-13 -13 -13 -13 -13 -13 -13 -13 -13 -13 -13 -13 -13 -13 -14 -14 -14 -14 -13 -13 -13 -14 -15 -17 -18 -19 -20 -20 -20 -20 -20 -20 -20 -20 -20 -20 -20 -19 -19 -19 -18 -18
-13 -13 -13 -13 -13 -13 -13 -13 -13 -13 -13 -13 -14 -14 -14 -14 -14 -14 -14 -14 -14 -15 -16 -18 -19 -20 -20 -20 -20 -20 -20 -20 -21 -20 -20 -20 -20 -20 -19 -19 -19 -18
-13 -13 -13 -13 -13 -13 -13 -13 -13 -13 -13 -14 -14 -14 -14 -14 -14 -14 -14 -14 -15 -16 -17 -19 -20 -20 -21 -21 -20 -20 -21 -21 -21 -21 -21 -20 -20 -20 -19 -19 -19 -18
-13 -13 -13 -13 -13 -13 -13 -13 -14 -14 -14 -14 -14 -14 -14 -14 -14 -14 -14 -14 -15 -17 -18 -19 -20 -21 -21 -21 -21 -21 -21 -21 -21 -21 -21 -21 -20 -20 -19 -19 -19 -18
-13 -13 -13 -13 -13 -14 -14 -14 -14 -14 -14 -14 -14 -14 -14 -14 -14 -14 -14 -15 -16 -18 -19 -20 -20 -21 -21 -21 -21 -21 -21 -21 -21 -21 -21 -21 -20 -20 -20 -19 -19 -18
-13 -13 -13 -14 -14 -14 -14 -14 -14 -14 -14 -14 -14 -14 -14 -14 -14 -14 -14 -15 -16 -18 -19 -20 -21 -21 -21 -21 -21 -21 -21 -21 -21 -21 -21 -21 -20 -20 -19 -19 -19 -19
-13 -13 -14 -14 -14 -14 -14 -14 -14 -14 -14 -14 -14 -15 -14 -14 -14 -14 -14 -15 -17 -19 -20 -20 -21 -21 -21 -21 -21 -21 -21 -21 -21 -21 -21 -20 -20 -20 -20 -19 -19 -19
-13 -14 -14 -14 -14 -14 -14 -14 -14 -14 -14 -14 -15 -15 -15 -15 -14 -14 -14 -15 -17 -19 -20 -20 -21 -21 -21 -21 -21 -21 -21 -21 -21 -21 -21 -20 -20 -20 -20 -19 -19 -19
-14 -14 -14 -14 -14 -14 -14 -14 -14 -14 -14 -15 -15 -15 -15 -15 -15 -14 -15 -16 -17 -19 -20 -20 -21 -21 -22 -22 -21 -21 -21 -21 -21 -21 -20 -20 -20 -20 -20 -19 -19 -19
-14 -14 -14 -14 -14 -14 -14 -14 -14 -14 -15 -15 -15 -15 -15 -15 -15 -14 -15 -16 -17 -19 -20 -20 -21 -22 -22 -22 -21 -21 -21 -21 -21 -20 -20 -20 -20 -20 -19 -19 -19 -19
-14 -14 -14 -14 -14 -14 -14 -14 -14 -15 -15 -15 -15 -15 -15 -15 -15 -15 -15 -16 -18 -19 -20 -20 -21 -22 -22 -22 -21 -21 -21 -21 -21 -21 -20 -20 -20 -20 -19 -19 -19 -19
-14 -14 -14 -14 -14 -14 -14 -14 -15 -15 -15 -15 -15 -15 -15 -15 -15 -15 -15 -16 -18 -19 -20 -20 -21 -21 -22 -21 -21 -21 -21 -21 -21 -21 -20 -20 -20 -20 -19 -19 -19 -20
-14 -14 -14 -14 -14 -14 -14 -15 -15 -15 -15 -15 -15 -15 -15 -15 -15 -15 -15 -16 -18 -19 -20 -20 -21 -21 -21 -21 -21 -21 -21 -21 -21 -21 -21 -20 -20 -20 -20 -20 -20 -20
-14 -14 -14 -14 -14 -14 -15 -15 -15 -15 -15 -15 -15 -15 -15 -15 -15 -15 -15 -16 -17 -19 -20 -20 -21 -21 -21 -21 -21 -21 -21 -20 -20 -20 -20 -20 -20 -20 -20 -20 -19 -19
-14 -14 -14 -14 -14 -15 -15 -15 -15 -15 -15 -15 -15 -15 -15 -15 -15 -15 -15 -16 -17 -19 -20 -20 -21 -21 -21 -21 -21 -21 -21 -20 -20 -20 -20 -20 -19 -19 -19 -19 -19 -19
-14 -14 -14 -14 -15 -15 -15 -15 -15 -15 -15 -15 -15 -16 -16 -15 -15 -15 -15 -16 -17 -18 -20 -20 -20 -21 -21 -21 -21 -21 -21 -21 -20 -20 -20 -20 -19 -19 -19 -19 -19 -19
-14 -14 -14 -14 -15 -15 -15 -15 -15 -15 -15 -16 -16 -16 -16 -16 -15 -15 -15 -16 -17 -18 -19 -20 -20 -20 -21 -21 -21 -21 -21 -21 -20 -20 -20 -20 -19 -19 -19 -19 -19 -18
-14 -14 -15 -15 -15 -15 -15 -15 -15 -15 -15 -16 -16 -16 -16 -16 -16 -15 -15 -16 -16 -18 -19 -20 -20 -20 -21 -21 -21 -21 -21 -20 -19 -19 -19 -19 -19 -19 -19 -18 -18 -18
-14 -15 -15 -15 -15 -15 -15 -15 -15 -15 -16 -16 -16 -16 -16 -16 -16 -16 -15 -16 -16 -17 -18 -19 -20 -20 -20 -21 -21 -21 -21 -20 -19 -19 -19 -19 -19 -19 -18 -17 -18 -18
-15 -15 -15 -15 -15 -15 -15 -15 -15 -15 -16 -16 -16 -16 -16 -16 -16 -16 -16 -16 -16 -17 -18 -19 -19 -20 -20 -20 -21 -21 -20 -20 -19 -19 -18 -18 -18 -18 -18 -18 -18 -18
-15 -15 -15 -15 -15 -15 -15 -15 -15 -16 -16 -16 -16 -16 -16 -16 -16 -16 -16 -16 -16 -16 -17 -18 -19 -19 -20 -20 -20 -20 -20 -19 -19 -18 -18 -18 -18 -18 -18 -18 -18 -18
-15 -15 -15 -15 -15 -15 -15 -15 -15 -15 -16 -16 -16 -16 -16 -16 -16 -16 -16 -16 -16 -16 -17 -17 -18 -19 -19 -19 -19 -19 -19 -18 -18 -18 -18 -18 -18 -17 -18 -18 -18 -18
-15 -15 -15 -15 -15 -15 -15 -15 -15 -15 -16 -16 -16 -16 -16 -16 -16 -16 -16 -16 -16 -16 -16 -17 -17 -18 -19 -19 -19 -18 -18 -17 -17 -17 -18 -18 -18 -17 -17 -17 -18 -18
-15 -15 -15 -15 -15 -15 -15 -15 -15 -15 -15 -15 -16 -16 -16 -16 -16 -16 -16 -16 -16 -16 -16 -16 -17 -17 -18 -19 -18 -18 -17 -17 -17 -17 -17 -17 -17 -17 -17 -17 -17 -18
-14 -15 -15 -15 -15 -15 -15 -15 -15 -15 -15 -15 -15 -16 -16 -16 -16 -16 -16 -16 -16 -16 -16 -16 -16 -17 -17 -18 -18 -18 -17 -17 -17 -17 -17 -17 -17 -17 -17 -17 -17 -18
Height
5800 5797 5794 5791 5789 5786 5782 5779 5775 5771 5767 5763 5758 5754 5749 5743 5737 5730 5723 5715 5706 5696 5687 5678 5671 5664 5659 5655 5652 5649 5645 5642 5640 5639 5638 5637 5637 5639 5641 5644 5648 5653
5799 5796 5793 5790 5787 5784 5781 5777 5773 5769 5764 5760 5755 5750 5745 5739 5733 5726 5718 5708 5699 5689 5679 5671 5664 5658 5654 5650 5647 5643 5640 5637 5634 5633 5632 5632 5632 5633 5635 5638 5641 5646
5798 5795 5792 5789 5786 5783 5779 5775 5771 5766 5762 5757 5752 5747 5742 5736 5729 5721 5713 5703 5692 5682 5673 5665 5658 5653 5649 5645 5641 5638 5634 5631 5629 5628 5627 5627 5628 5629 5630 5633 5636 5641
5797 5794 5791 5788 5785 5781 5777 5773 5769 5764 5760 5755 5749 5744 5738 5732 5725 5717 5707 5697 5686 5676 5667 5659 5653 5649 5645 5641 5637 5633 5629 5626 5624 5623 5622 5623 5623 5624 5626 5629 5632 5636
5796 5793 5790 5786 5783 5779 5775 5771 5767 5762 5757 5752 5747 5741 5735 5728 5721 5712 5702 5691 5681 5671 5662 5655 5649 5645 5641 5637 5632 5628 5624 5622 5620 5619 5619 5619 5620 5621 5623 5626 5629 5632
5795 5792 5788 5785 5781 5778 5774 5770 5765 5760 5755 5750 5744 5738 5732 5725 5717 5708 5697 5686 5676 5667 5658 5651 5646 5641 5637 5633 5628 5624 5620 5618 5617 5616 5616 5616 5617 5619 5621 5623 5626 5629
5794 5790 5787 5783 5780 5777 5773 5768 5763 5758 5753 5748 5742 5736 5729 5722 5713 5704 5693 5682 5672 5663 5654 5647 5642 5638 5633 5629 5624 5620 5617 5615 5614 5614 5614 5615 5615 5617 5619 5622 5625 5627
5792 5789 5786 5783 5779 5775 5771 5767 5762 5757 5751 5746 5740 5733 5727 5719 5710 5701 5689 5678 5669 5659 5650 5644 5639 5634 5629 5624 5620 5617 5615 5613 5613 5613 5613 5613 5614 5616 5618 5620 5623 5625
5791 5788 5785 5782 5778 5774 5770 5765 5760 5755 5750 5744 5738 5731 5724 5716 5707 5697 5686 5675 5665 5656 5648 5642 5637 5630 5625 5620 5617 5615 5613 5612 5612 5611 5611 5612 5613 5615 5617 5619 5621 5623
5790 5788 5784 5781 5777 5773 5768 5764 5759 5754 5748 5742 5736 5729 5722 5714 5705 5694 5683 5672 5663 5653 5645 5639 5633 5627 5621 5617 5615 5613 5612 5611 5611 5610 5611 5611 5613 5614 5616 5618 5621 5623
5790 5787 5783 5779 5775 5771 5767 5762 5757 5752 5746 5740 5734 5727 5720 5711 5702 5692 5681 5670 5660 5651 5642 5636 5630 5624 5620 5616 5614 5612 5611 5611 5610 5610 5610 5611 5613 5615 5616 5619 5621 5622
5789 5785 5782 5778 5774 5770 5766 5761 5756 5750 5745 5739 5732 5725 5718 5710 5700 5690 5679 5668 5658 5649 5640 5633 5628 5623 5619 5616 5614 5613 5612 5611 5610 5610 5611 5612 5613 5615 5617 5619 5620 5621
5787 5784 5780 5777 5773 5768 5764 5759 5754 5749 5743 5737 5731 5724 5717 5708 5699 5689 5678 5667 5657 5648 5639 5633 5628 5624 5620 5617 5615 5614 5612 5611 5611 5611 5612 5613 5613 5614 5616 5618 5619 5621
5786 5783 5779 5775 5771 5767 5762 5757 5753 5747 5742 5736 5730 5723 5715 5707 5699 5689 5678 5667 5656 5647 5639 5633 5629 5625 5622 5619 5617 5615 5613 5612 5612 5612 5613 5614 5615 5615 5616 5617 5619 5621
5785 5782 5778 5774 5770 5766 5761 5756 5751 5746 5741 5735 5729 5722 5715 5707 5698 5689 5678 5667 5657 5648 5640 5635 5630 5627 5623 5621 5618 5616 5614 5614 5614 5615 5615 5615 5616 5616 5617 5618 5619 5621
5784 5781 5777 5773 5769 5765 5760 5755 5750 5745 5740 5734 5728 5722 5715 5707 5699 5690 5680 5669 5658 5649 5642 5636 5632 5628 5624 5621 5619 5617 5616 5615 5616 5617 5617 5617 5618 5618 5619 5620 5620 5622
5783 5780 5776 5772 5768 5764 5759 5754 5749 5745 5739 5734 5728 5722 5715 5708 5700 5691 5681 5671 5660 5651 5644 5638 5634 5630 5626 5623 5620 5619 5618 5617 5618 5619 5619 5620 5621 5621 5621 5621 5622 5623
5782 5779 5775 5771 5767 5763 5759 5754 5749 5744 5739 5733 5728 5722 5716 5709 5701 5692 5683 5673 5663 5654 5646 5641 5636 5632 5628 5625 5622 5621 5620 5620 5621 5622 5622 5622 5623 5623 5623 5624 5624 5625
5781 5778 5774 5770 5766 5762 5758 5754 5749 5744 5739 5734 5728 5723 5716 5710 5702 5694 5685 5676 5666 5657 5649 5643 5639 5634 5630 5628 5625 5623 5622 5622 5623 5624 5625 5625 5625 5626 5625 5625 5626 5627
5780 5777 5773 5769 5765 5762 5758 5753 5749 5744 5739 5734 5729 5724 5718 5711 5704 5697 5688 5679 5670 5661 5653 5647 5642 5637 5633 5631 5629 5627 5625 5625 5626 5627 5628 5628 5627 5627 5627 5627 5629 5629
5779 5776 5772 5769 5765 5761 5757 5753 5749 5744 5740 5735 5730 5725 5719 5713 5706 5699 5691 5683 5674 5666 5657 5651 5645 5641 5637 5634 5632 5630 5629 5629 5629 5630 5631 5631 5630 5629 5629 5630 5630 5629
5778 5775 5772 5768 5764 5760 5757 5753 5749 5745 5740 5736 5731 5725 5720 5714 5708 5701 5694 5687 5679 5670 5662 5655 5650 5645 5641 5638 5636 5634 5633 5632 5633 5633 5634 5634 5634 5634 5634 5634 5632 5631
5777 5774 5771 5768 5764 5760 5757 5753 5749 5745 5741 5736 5731 5726 5721 5716 5710 5704 5698 5691 5683 5675 5667 5660 5655 5650 5646 5643 5641 5639 5638 5637 5637 5638 5638 5638 5638 5638 5638 5636 5634 5633
5777 5773 5770 5767 5763 5760 5756 5753 5749 5745 5741 5737 5732 5728 5723 5717 5712 5706 5700 5694 5687 5680 5673 5665 5659 5655 5651 5648 5646 5644 5642 5642 5641 5641 5641 5641 5640 5640 5640 5639 5637 5636
5776 5773 5769 5766 5762 5759 5756 5752 5748 5745 5741 5737 5733 5728 5723 5718 5713 5708 5703 5697 5691 5685 5678 5671 5664 5659 5655 5652 5650 5648 5647 5646 5645 5644 5644 5643 5643 5642 5642 5641 5640 5639
5775 5772 5768 5765 5762 5758 5755 5751 5747 5744 5740 5736 5732 5728 5724 5719 5714 5709 5705 5700 5694 5689 5683 5676 5670 5664 5659 5656 5654 5652 5651 5649 5648 5647 5646 5645 5645 5644 5644 5643 5643 5641
Wind_Speed
32 33 33 33 34 35 36 38 40 42 43 45 46 48 49 52 56 60 64 68 71 72 72 68 62 53 45 39 36 36 37 35 33 31 29 29 32 33 31 32 37 35
33 33 33 34 34 36 38 39 41 42 44 46 48 49 51 54 58 62 66 70 73 73 70 65 57 48 41 37 37 37 37 35 32 30 28 27 28 29 28 28 32 37
33 33 34 34 35 37 39 40 42 43 45 47 49 50 52 56 60 64 68 72 73 72 68 61 52 44 39 37 38 39 37 33 30 27 25 25 24 23 25 25 25 33
33 34 34 35 36 38 40 41 42 44 46 48 50 51 54 57 62 66 70 73 74 70 64 56 48 41 37 38 39 39 36 31 27 25 21 20 20 20 22 22 20 27
34 34 35 35 37 39 40 42 43 45 47 49 51 52 55 59 63 68 72 74 73 67 60 52 45 39 37 39 40 38 33 27 24 21 17 15 15 17 17 18 18 23
34 35 35 36 38 39 40 42 43 45 48 50 51 53 56 60 65 70 73 75 72 64 56 48 42 39 38 40 40 35 29 25 21 16 13 12 11 12 12 14 17 21
34 35 36 37 38 39 41 42 44 46 48 50 52 54 57 61 66 71 74 76 71 61 53 47 41 39 39 41 38 30 25 22 17 13 10 8 7 8 9 12 15 19
35 35 36 36 38 39 41 43 44 47 49 51 52 54 58 62 67 73 75 77 71 59 52 46 41 41 42 40 34 26 21 18 14 11 8 6 5 6 9 12 13 15
35 35 35 37 38 40 42 43 45 47 49 52 53 55 59 63 69 73 76 77 70 59 52 47 44 43 42 37 29 22 18 14 11 9 6 4 3 4 7 10 11 10
34 35 36 37 38 40 42 44 45 47 50 52 54 56 60 64 70 74 77 78 70 59 53 50 46 42 36 30 24 19 15 12 10 8 5 2 2 1 4 8 9 9
34 35 36 37 39 41 42 44 46 48 50 53 54 57 60 65 70 74 78 78 70 60 55 50 44 37 31 25 21 17 13 11 10 7 4 4 3 2 3 4 6 9
34 35 36 37 39 41 43 45 47 48 51 53 55 57 61 65 70 75 78 78 71 61 55 49 40 32 27 24 20 17 14 12 9 5 6 7 5 3 2 2 2 5
35 36 37 38 39 41 43 45 47 49 51 53 55 57 61 65 70 75 78 78 72 62 55 47 38 30 26 24 21 17 14 11 6 5 7 6 4 3 2 3 4 3
35 36 37 38 39 41 44 46 48 49 51 53 55 57 61 65 70 75 78 78 72 63 54 46 37 31 27 23 19 16 13 9 4 6 6 4 4 4 2 1 2 2
35 36 37 38 39 41 44 46 48 49 51 53 55 57 60 64 69 74 78 79 73 64 54 45 39 33 27 22 18 15 13 7 3 4 6 5 4 3 1 1 1 3
35 36 37 38 39 41 44 47 48 49 51 53 55 57 60 63 68 73 77 79 75 65 55 46 40 35 29 23 19 16 12 8 3 4 9 10 7 5 5 5 4 1
35 36 37 38 39 41 44 46 48 49 51 53 55 56 59 62 66 71 76 79 76 67 56 49 43 36 29 24 20 16 14 10 6 7 11 13 10 8 9 8 7 4
35 36 37 38 39 41 43 46 48 49 50 52 54 55 57 61 65 69 74 78 77 70 59 51 45 38 30 24 20 17 14 12 10 8 11 13 10 8 8 8 7 4
35 36 37 38 40 41 43 45 47 49 50 51 53 54 56 59 63 67 72 76 78 73 62 54 48 40 31 25 20 17 14 12 10 7 8 10 11 11 10 9 6 1
35 36 37 38 40 41 42 44 46 48 49 50 51 53 55 57 61 65 70 74 77 75 67 57 50 42 33 27 22 19 16 13 10 7 6 9 14 16 13 7 4 3
36 36 37 38 39 41 42 43 45 47 48 48 50 52 53 56 59 62 67 72 75 76 70 61 52 45 37 30 25 21 18 17 14 11 9 12 17 18 13 9 7 8
36 36 37 38 39 40 41 42 43 45 46 47 49 51 52 54 57 60 63 68 73 75 73 65 56 48 39 32 26 23 20 19 17 15 13 14 17 15 11 11 12 13
36 36 37 38 38 39 40 41 42 44 45 46 47 49 51 52 54 57 60 64 69 72 73 69 61 51 42 34 27 24 22 19 17 15 13 15 15 12 10 12 14 14
36 36 37 38 38 39 40 41 42 43 44 45 46 47 49 50 52 55 57 60 65 69 71 70 66 56 46 37 29 25 22 17 14 12 13 15 15 11 10 13 13 13
36 36 37 38 38 39 40 41 42 43 44 45 45 46 47 49 50 52 55 57 60 65 68 69 68 62 52 42 33 27 22 16 12 10 11 13 14 11 10 12 12 11
36 36 37 38 38 39 40 41 42 43 44 45 46 46 46 48 49 50 52 54 56 60 64 67 67 64 59 49 39 30 23 18 13 10 9 10 12 11 8 9 10 9
Wind_Direction
345 343 341 339 337 335 334 334 333 333 333 333 333 333 332 333 333 333 334 334 333 331 329 327 325 323 320 318 315 314 313 307 300 291 280 270 262 257 254 247 235 230
345 343 341 338 336 335 335 335 335 335 335 335 335 334 334 335 335 336 336 336 335 333 331 329 326 324 321 319 318 317 315 309 301 293 282 273 267 259 253 251 241 228
344 342 340 338 337 337 337 337 337 337 337 337 337 336 336 337 338 339 339 338 337 335 333 330 327 325 323 322 321 320 317 311 302 294 285 275 269 260 252 251 242 225
344 342 340 339 339 339 339 339 339 339 339 339 338 338 338 339 340 341 341 340 339 338 335 331 328 326 325 324 323 321 318 311 304 296 288 279 268 258 254 251 236 220
344 342 341 341 341 341 340 340 340 340 340 340 340 339 340 341 342 344 344 342 342 341 337 332 329 327 326 326 325 323 318 312 308 299 289 281 264 254 254 245 226 217
344 342 342 343 342 341 341 341 341 341 342 341 341 341 342 343 345 346 346 345 345 343 337 333 330 328 328 328 327 325 319 314 312 303 292 282 264 255 251 232 220 215
343 344 344 343 343 342 342 342 342 343 343 343 343 342 344 345 347 348 348 347 347 345 339 335 332 330 329 329 329 326 322 319 317 312 301 283 262 250 232 218 220 219
344 345 344 343 342 342 343 344 344 344 344 344 344 344 346 347 349 350 350 349 350 347 341 338 335 332 331 330 331 329 326 325 325 325 314 288 262 233 219 219 226 228
345 344 343 343 343 344 345 345 345 346 346 346 346 346 348 349 351 352 352 352 352 349 344 341 338 334 333 332 333 334 333 333 335 339 329 297 269 230 222 223 226 223
344 343 343 344 344 345 346 346 346 347 348 348 348 348 350 351 353 354 354 354 354 351 346 345 342 339 338 337 338 340 341 342 344 349 351 337 314 235 205 211 216 195
343 343 344 345 345 346 347 347 348 349 350 350 349 350 351 353 355 356 355 356 356 353 349 348 347 346 344 344 346 348 349 352 352 358 34 63 74 102 159 206 229 204
343 344 345 345 346 347 347 349 350 351 351 351 351 352 353 355 357 358 357 358 358 355 352 353 354 353 352 351 353 356 357 356 359 33 78 80 93 114 179 209 194 201
344 345 345 345 347 348 349 351 352 352 353 353 353 354 355 356 359 360 359 359 359 358 356 358 360 360 358 356 355 357 359 357 11 83 91 89 123 146 197 198 163 167
345 345 346 346 348 350 351 352 353 353 354 354 354 355 356 358 360 1 1 1 1 1 1 2 4 4 4 1 357 357 359 360 45 102 89 97 150 162 179 226 221 232
346 345 346 347 349 351 352 353 354 354 355 355 356 357 357 359 1 3 4 3 3 4 4 5 5 4 5 6 3 1 360 6 74 90 57 76 127 167 195 348 320 254
346 346 346 348 350 352 353 354 354 355 355 356 357 358 359 0 2 4 5 5 5 6 7 7 6 4 5 7 9 10 10 21 63 48 53 80 100 99 97 86 78 234
346 346 346 348 350 352 354 355 355 355 356 357 358 358 360 1 3 5 7 7 7 8 9 9 7 5 6 9 14 20 24 39 53 43 63 86 95 95 106 110 105 126
346 346 346 348 350 352 354 355 355 356 357 358 358 359 1 2 4 6 8 9 9 9 10 10 9 7 7 10 18 26 34 53 60 50 68 87 88 91 109 116 108 137
347 346 347 348 350 352 354 355 356 357 358 358 359 359 1 3 5 7 9 10 10 10 11 12 11 10 8 11 19 26 38 62 73 63 69 76 64 60 80 97 94 138
348 347 347 349 350 352 354 355 356 357 358 358 359 360 2 4 6 8 10 11 12 12 12 13 14 13 11 13 18 25 42 64 75 75 73 59 43 42 52 65 62 86
348 348 348 349 350 351 354 355 357 357 358 358 359 0 2 5 7 9 11 13 13 13 13 14 16 16 15 16 22 31 47 62 69 75 74 50 37 39 43 41 48 83
349 349 349 349 350 351 353 355 356 357 358 358 359 1 3 5 7 9 11 13 14 14 14 14 17 19 18 19 27 39 50 60 69 77 70 45 35 38 41 42 54 75
349 349 349 349 350 351 352 354 355 356 358 359 359 1 3 5 7 10 11 14 15 16 15 15 16 20 22 22 29 42 50 57 67 74 61 39 34 37 34 38 55 69
349 349 349 350 350 351 351 352 354 355 357 359 360 1 3 5 7 9 11 14 16 16 17 16 16 19 23 24 28 37 46 52 59 63 51 34 30 34 34 35 49 64
349 349 349 350 350 350 350 351 353 354 356 358 359 0 3 5 7 9 11 13 16 17 18 18 17 17 20 23 26 31 35 37 39 40 37 28 20 22 34 36 41 56
349 349 349 350 350 349 350 350 352 354 355 357 358 360 2 5 7 8 10 13 15 17 18 19 18 17 17 19 23 26 26 23 19 16 20 18 9 8 22 33 38 49